Date String (YYYY-MM-DD hh:mm:ss) UTC,Instrument flags,Ambient pressure (hPa),Sample flow (lpm),Bypass flow (lpm),Sample temperature (°C),Ambient temperature (°C),ASC tube jacket temperature (°C),LED temperature (°C),Box temperature (°C),Sample RH (%),Span deviation,Mass concentration (μg/m³),Mass concentration (μg/m³),Mass concentration (μg/m³)
DateTimeUTC,F1_M11,P_M11,Q1_M11,Q2_M11,T1_M11,T2_M11,T3_M11,T4_M11,T5_M11,U1_M11,ZSPAN_M11,X0_M11,X2_M11,X1_M11
2022-04-29 09:00:00,,0813.1,4.98,0.00,29.0,28.2,00.0,38.1,30.8,09.8,0002.2,0020.49,0007.95,0005.28
2022-04-29 09:01:00,,0813.2,5.00,0.00,29.0,28.3,00.0,38.1,30.8,09.7,0002.3,0020.89,0008.02,0005.28
2022-04-29 09:02:00,,0813.2,5.00,0.00,29.1,28.3,00.0,38.1,30.8,09.7,0002.4,0021.05,0007.99,0005.29
2022-04-29 09:03:00,,0813.3,5.00,0.00,29.1,28.4,00.0,38.1,30.9,09.6,0002.6,0021.49,0007.91,0005.28
2022-04-29 09:04:00,,0813.3,5.00,0.00,29.1,28.4,00.0,38.1,30.9,09.6,0002.7,0021.53,0007.95,0005.29
2022-04-29 09:05:00,,0813.3,4.99,0.00,29.1,28.5,00.0,38.1,30.9,09.6,0003.3,0022.08,0007.95,0005.28
2022-04-29 09:06:00,,0813.3,5.01,0.00,29.1,28.5,00.0,38.1,30.9,09.6,0003.1,0021.94,0007.93,0005.28
2022-04-29 09:07:00,,0813.2,4.99,0.00,29.1,28.5,00.0,38.1,30.9,09.6,0002.4,0022.26,0007.91,0005.27
2022-04-29 09:08:00,,0813.2,5.00,0.00,29.1,28.5,00.0,38.1,30.9,09.6,0002.2,0023.04,0007.95,0005.28
2022-04-29 09:09:00,,0813.2,5.02,0.00,29.1,28.5,00.0,38.1,30.9,09.7,0002.0,0023.43,0007.94,0005.29
2022-04-29 09:10:00,,0813.1,4.98,0.00,29.1,28.5,00.0,38.1,30.9,09.7,0002.6,0023.90,0007.99,0005.30
2022-04-29 09:11:00,,0813.1,5.01,0.00,29.1,28.5,00.0,38.1,30.9,09.7,0002.5,0023.49,0008.03,0005.30
2022-04-29 09:12:00,,0813.1,5.00,0.00,29.1,28.5,00.0,38.1,30.9,09.9,0002.5,0023.04,0008.02,0005.31
2022-04-29 09:13:00,,0813.1,4.98,0.00,29.1,28.5,00.0,38.1,30.9,09.8,0002.1,0022.38,0008.06,0005.30
2022-04-29 09:14:00,,0813.1,5.00,0.00,29.1,28.5,00.0,38.1,30.9,09.8,0001.7,0021.63,0008.05,0005.29
2022-04-29 09:15:00,,0813.2,4.98,0.00,29.1,28.5,00.0,38.1,30.9,09.9,0001.3,0021.02,0007.95,0005.28
2022-04-29 09:16:00,,0813.3,5.00,0.00,29.1,28.5,00.0,38.1,30.9,09.9,0000.5,0020.27,0007.98,0005.29
2022-04-29 09:17:00,,0813.3,4.99,0.00,29.1,28.5,00.0,38.1,30.9,09.9,0000.3,0019.99,0007.98,0005.30
2022-04-29 09:18:00,,0813.3,5.00,0.00,29.1,28.5,00.0,38.1,30.9,09.9,0000.8,0019.61,0008.04,0005.31
2022-04-29 09:19:00,,0813.3,5.01,0.00,29.1,28.5,00.0,38.1,30.9,09.9,0000.7,0018.80,0008.04,0005.32
2022-04-29 09:20:00,,0813.4,4.98,0.00,29.1,28.4,00.0,38.1,30.8,09.9,0000.7,0018.02,0008.03,0005.34
2022-04-29 09:21:00,,0813.5,5.01,0.00,29.1,28.4,00.0,38.1,30.8,09.9,0000.2,0017.48,0007.93,0005.35
2022-04-29 09:22:00,,0813.4,4.98,0.00,29.0,28.3,00.0,38.1,30.7,09.9,0000.1,0016.95,0007.86,0005.36
2022-04-29 09:23:00,,0813.4,5.02,0.00,29.0,28.2,00.0,38.1,30.7,09.9,0000.2,0017.28,0007.85,0005.37
2022-04-29 09:24:00,,0813.3,4.98,0.00,29.0,28.3,00.0,38.1,30.7,09.9,-000.2,0018.41,0007.96,0005.38
2022-04-29 09:25:00,,0813.3,5.02,0.00,29.0,28.3,00.0,38.1,30.7,10.0,-000.1,0019.38,0008.06,0005.40
2022-04-29 09:26:00,,0813.3,5.00,0.00,29.0,28.3,00.0,38.0,30.8,10.0,0000.1,0019.43,0008.17,0005.43
2022-04-29 09:27:00,,0813.3,4.99,0.00,29.0,28.3,00.0,38.0,30.8,10.1,0000.2,0019.45,0008.19,0005.44
2022-04-29 09:28:00,,0813.3,5.00,0.00,29.0,28.4,00.0,38.1,30.8,10.1,0001.0,0019.31,0008.21,0005.47
2022-04-29 09:29:00,,0813.2,5.01,0.00,29.1,28.4,00.0,38.1,30.8,10.1,0000.0,0020.12,0008.24,0005.50
2022-04-29 09:30:00,,0813.1,4.99,0.00,29.1,28.4,00.0,38.1,30.8,10.3,0000.0,0022.36,0008.25,0005.49
2022-04-29 09:31:00,,0813.1,5.00,0.00,29.1,28.4,00.0,38.1,30.8,10.2,0000.0,0023.01,0008.30,0005.49
2022-04-29 09:32:00,,0813.1,5.00,0.00,29.1,28.5,00.0,38.1,30.8,10.3,0000.0,0024.69,0008.34,0005.48
2022-04-29 09:33:00,,0813.2,4.99,0.00,29.1,28.5,00.0,38.1,30.9,10.3,0000.6,0025.04,0008.41,0005.49
2022-04-29 09:34:00,,0813.2,5.01,0.00,29.1,28.5,00.0,38.1,30.9,10.4,0001.1,0027.05,0008.49,0005.48
2022-04-29 09:35:00,,0813.2,4.99,0.00,29.1,28.5,00.0,38.1,30.9,10.4,0000.0,0027.39,0008.41,0005.48
2022-04-29 09:36:00,,0813.2,5.01,0.00,29.1,28.5,00.0,38.1,30.9,10.4,0001.0,0027.65,0008.41,0005.50
2022-04-29 09:37:00,,0813.2,4.99,0.00,29.1,28.5,00.0,38.1,30.9,10.6,0000.5,0027.63,0008.40,0005.49
2022-04-29 09:38:00,,0813.3,5.01,0.00,29.2,28.5,00.0,38.1,31.0,10.6,0000.0,0028.23,0008.48,0005.49
2022-04-29 09:39:00,,0813.4,4.99,0.00,29.2,28.6,00.0,38.1,31.0,10.8,0000.5,0028.06,0008.44,0005.46
2022-04-29 09:40:00,,0813.4,5.01,0.00,29.2,28.5,00.0,38.1,30.9,10.8,0001.5,0027.32,0008.38,0005.44
2022-04-29 09:41:00,,0813.4,4.99,0.00,29.2,28.5,00.0,38.1,30.9,10.5,0001.8,0025.81,0008.37,0005.45
2022-04-29 09:42:00,,0813.5,5.02,0.00,29.1,28.3,00.0,38.1,30.8,10.2,0002.0,0026.78,0008.35,0005.47
2022-04-29 09:43:00,,0813.4,4.99,0.00,29.1,28.1,00.0,38.1,30.7,10.3,0001.8,0027.60,0008.40,0005.48
2022-04-29 09:44:00,,0813.4,5.02,0.00,29.0,28.1,00.0,38.1,30.7,10.3,0001.7,0027.75,0008.42,0005.48
2022-04-29 09:45:00,,0813.3,4.98,0.00,29.0,28.1,00.0,38.0,30.7,10.4,0001.1,0025.21,0008.29,0005.46
2022-04-29 09:46:00,,0813.3,5.01,0.00,29.0,28.1,00.0,38.0,30.7,10.5,0000.6,0023.88,0008.26,0005.46
2022-04-29 09:47:00,,0813.2,4.98,0.00,29.0,28.2,00.0,38.0,30.7,10.9,0000.6,0022.79,0008.16,0005.43
2022-04-29 09:48:00,,0813.2,5.01,0.00,29.0,28.2,00.0,38.0,30.7,11.1,-000.1,0023.51,0008.19,0005.39
2022-04-29 09:49:00,,0813.3,4.99,0.00,29.0,28.3,00.0,38.0,30.8,11.2,0001.1,0023.58,0008.14,0005.37
2022-04-29 09:50:00,,0813.4,5.00,0.00,29.0,28.3,00.0,38.0,30.8,11.1,0000.7,0024.08,0008.17,0005.35
2022-04-29 09:51:00,,0813.4,5.00,0.00,29.0,28.3,00.0,38.0,30.8,11.0,0000.7,0023.90,0008.14,0005.33
2022-04-29 09:52:00,,0813.4,4.99,0.00,29.0,28.2,00.0,38.0,30.7,11.0,0001.3,0022.91,0008.11,0005.32
2022-04-29 09:53:00,,0813.4,5.01,0.00,28.9,28.0,00.0,38.0,30.6,10.8,0000.7,0021.85,0008.15,0005.28
2022-04-29 09:54:00,,0813.4,4.98,0.00,28.9,27.9,00.0,38.0,30.5,10.6,0001.5,0020.12,0008.14,0005.25
2022-04-29 09:55:00,,0813.4,5.02,0.00,28.8,27.8,00.0,37.9,30.4,10.3,0001.6,0019.41,0008.06,0005.25
2022-04-29 09:56:00,,0813.3,4.99,0.00,28.8,27.7,00.0,37.9,30.4,10.3,0002.6,0019.37,0008.06,0005.25
2022-04-29 09:57:00,,0813.3,5.02,0.00,28.7,27.7,00.0,37.9,30.3,10.4,0003.5,0019.38,0008.04,0005.25
2022-04-29 09:58:00,,0813.2,4.99,0.00,28.6,27.7,00.0,37.9,30.2,10.6,0004.2,0019.86,0008.10,0005.25
2022-04-29 09:59:00,,0813.2,5.00,0.00,28.6,27.7,00.0,37.8,30.2,10.7,0005.1,0019.51,0008.14,0005.29
